QZS-2 (MICHIBIKI-2)

Last updated on Fri Jun 19 2026 20:04:16 GMT+0000 (Coordinated Universal Time)

1 42738U 17028A 26170.47837747 -.00000184 00000+0 00000+0 0 9997 2 42738 39.4240 243.1214 0758837 269.2922 69.3071 1.00283355 7645
UTC large
Height (km)
Speed (km/s)
/
Latitude / Longitude
Inclination (degrees)
Orbital Period (minutes)
Azimuth
Elevation
Range (km)
Doppler Factor

Next 0 passes for location: London (51.5072 / 0.1276)

No passes found over London.
QZS-2 (MICHIBIKI-2)